TimeAKST,TemperatureF,Dew PointF,Humidity,Sea Level PressureIn,VisibilityMPH,Wind Direction,Wind SpeedMPH,Gust SpeedMPH,PrecipitationIn,Events,Conditions,WindDirDegrees,DateUTC
12:36 AM,42.8,37.4,81,29.80,8.0,ESE,11.5,-,0.02,Rain,Light Rain,110,2013-02-03 09:36:00
12:53 AM,42.1,37.0,82,29.80,8.0,SE,13.8,-,0.04,Rain,Light Rain,130,2013-02-03 09:53:00
1:53 AM,41.0,37.9,89,29.76,9.0,ESE,15.0,-,0.06,Rain,Light Rain,120,2013-02-03 10:53:00
2:23 AM,41.0,37.4,87,29.74,9.0,ESE,17.3,25.3,0.01,Rain,Light Rain,110,2013-02-03 11:23:00
3:19 AM,41.0,37.4,87,29.70,7.0,ESE,19.6,-,0.03,Rain,Light Rain,120,2013-02-03 12:19:00
3:53 AM,41.0,37.9,89,29.68,8.0,ESE,17.3,-,0.06,Rain,Light Rain,120,2013-02-03 12:53:00
4:53 AM,39.9,37.9,93,29.65,6.0,ESE,16.1,25.3,0.10,Rain,Rain,120,2013-02-03 13:53:00
5:53 AM,41.0,37.0,86,29.62,7.0,ESE,12.7,27.6,0.10,Rain,Light Rain,120,2013-02-03 14:53:00
6:53 AM,39.9,37.0,89,29.61,5.0,ESE,16.1,-,0.16,Rain,Rain,120,2013-02-03 15:53:00
7:53 AM,39.0,37.0,93,29.63,7.0,SE,9.2,21.9,0.17,Rain,Light Rain,130,2013-02-03 16:53:00
8:14 AM,39.2,37.4,93,29.63,5.0,SE,9.2,-,0.05,Rain,Rain,130,2013-02-03 17:14:00
8:39 AM,39.2,37.4,93,29.65,4.0,Variable,6.9,23.0,0.16,Rain,Light Rain,0,2013-02-03 17:39:00
8:53 AM,39.0,37.9,96,29.66,9.0,SE,5.8,-,0.16,Rain,Light Rain,140,2013-02-03 17:53:00
9:53 AM,39.9,37.0,89,29.68,10.0,ESE,6.9,-,0.02,,Overcast,120,2013-02-03 18:53:00
10:53 AM,41.0,39.0,93,29.70,9.0,SSW,12.7,18.4,0.00,,Overcast,210,2013-02-03 19:53:00
11:53 AM,41.0,35.1,79,29.72,10.0,WSW,11.5,-,N/A,,Mostly Cloudy,240,2013-02-03 20:53:00
12:53 PM,39.9,35.1,83,29.73,10.0,SSW,5.8,-,N/A,,Mostly Cloudy,200,2013-02-03 21:53:00
1:53 PM,39.9,35.1,83,29.74,10.0,South,10.4,-,N/A,,Overcast,190,2013-02-03 22:53:00
2:53 PM,41.0,35.1,79,29.75,10.0,WSW,18.4,23.0,0.03,,Overcast,250,2013-02-03 23:53:00
3:06 PM,39.2,35.6,87,29.76,5.0,WSW,20.7,32.2,0.01,Rain,Light Rain,240,2013-02-04 00:06:00
3:53 PM,41.0,35.1,79,29.77,10.0,SW,9.2,-,0.02,,Mostly Cloudy,230,2013-02-04 00:53:00
4:53 PM,39.0,35.1,86,29.78,10.0,Calm,Calm,-,0.00,,Overcast,0,2013-02-04 01:53:00
5:09 PM,39.2,35.6,87,29.78,10.0,Calm,Calm,-,N/A,,Overcast,0,2013-02-04 02:09:00
5:40 PM,37.4,35.6,93,29.78,10.0,Calm,Calm,-,N/A,,Overcast,0,2013-02-04 02:40:00
5:53 PM,39.0,37.0,93,29.79,9.0,South,5.8,-,N/A,,Overcast,170,2013-02-04 02:53:00
6:25 PM,39.2,33.8,81,29.79,10.0,Calm,Calm,-,N/A,,Mostly Cloudy,0,2013-02-04 03:25:00
6:53 PM,39.0,37.0,93,29.79,10.0,Calm,Calm,-,N/A,,Overcast,0,2013-02-04 03:53:00
7:01 PM,39.2,35.6,87,29.79,10.0,Calm,Calm,-,N/A,,Overcast,0,2013-02-04 04:01:00
7:08 PM,39.2,35.6,87,29.79,10.0,Calm,Calm,-,N/A,,Overcast,0,2013-02-04 04:08:00
7:18 PM,41.0,35.6,81,29.80,9.0,WSW,8.1,-,N/A,,Overcast,240,2013-02-04 04:18:00
7:53 PM,41.0,35.1,79,29.81,10.0,SW,9.2,-,N/A,,Overcast,230,2013-02-04 04:53:00
8:53 PM,39.9,35.1,83,29.82,10.0,SW,15.0,-,0.01,,Mostly Cloudy,220,2013-02-04 05:53:00
9:53 PM,39.0,34.0,82,29.83,10.0,SSE,6.9,-,N/A,,Mostly Cloudy,150,2013-02-04 06:53:00
10:09 PM,37.4,33.8,87,29.83,10.0,East,6.9,-,N/A,,Mostly Cloudy,80,2013-02-04 07:09:00
10:25 PM,37.4,35.6,93,29.84,10.0,East,5.8,-,N/A,,Overcast,100,2013-02-04 07:25:00
10:53 PM,37.0,36.0,96,29.84,10.0,ENE,4.6,-,0.00,Rain,Light Rain,60,2013-02-04 07:53:00
11:35 PM,39.2,35.6,87,29.84,10.0,East,8.1,-,0.00,,Overcast,90,2013-02-04 08:35:00
11:53 PM,37.9,35.1,89,29.84,10.0,East,8.1,-,0.00,,Overcast,90,2013-02-04 08:53:00